timestamp,wind_dir_avg,wind_spd_avg,wind_spd_max_dir,wind_spd_gust,battery_voltage,lat,long
2022-12-30 00:04:01+00:00,304.0,7.53,311.0,9.79,12.33,47.59359,-54.27349
2022-12-30 00:14:00+00:00,295.0,7.92,297.0,9.64,12.33,47.59359,-54.27349
2022-12-30 00:24:00+00:00,308.0,5.38,289.0,8.34,12.33,47.59359,-54.27349
2022-12-30 00:34:00+00:00,315.0,6.23,306.0,8.67,12.33,47.59359,-54.27349
2022-12-30 00:44:00+00:00,307.0,5.82,292.0,8.07,12.33,47.59359,-54.27349
2022-12-30 00:54:00+00:00,307.0,6.27,300.0,8.91,12.33,47.59359,-54.27349
2022-12-30 01:04:00+00:00,303.0,7.94,307.0,11.51,12.33,47.59359,-54.27349
2022-12-30 01:14:00+00:00,307.0,6.43,304.0,8.77,12.25,47.59359,-54.27349
2022-12-30 01:24:00+00:00,298.0,5.0,295.0,7.47,12.25,47.59359,-54.27349
2022-12-30 01:34:00+00:00,290.0,5.02,284.0,8.06,12.25,47.59359,-54.27349
2022-12-30 01:44:00+00:00,300.0,4.59,293.0,6.08,12.25,47.59359,-54.27349
2022-12-30 01:54:00+00:00,303.0,4.59,301.0,6.02,12.25,47.59359,-54.27349
2022-12-30 02:04:00+00:00,303.0,4.88,304.0,6.12,12.25,47.59359,-54.27349
2022-12-30 02:14:00+00:00,304.0,5.65,301.0,7.98,12.25,47.59359,-54.27349
2022-12-30 02:24:00+00:00,309.0,5.45,309.0,6.5,12.25,47.59359,-54.27349
2022-12-30 02:34:00+00:00,298.0,4.73,293.0,8.58,12.25,47.59359,-54.27349
2022-12-30 02:44:00+00:00,300.0,5.79,296.0,7.58,12.25,47.59359,-54.27349
2022-12-30 02:54:00+00:00,303.0,5.63,295.0,8.01,12.25,47.59359,-54.27349
2022-12-30 03:04:00+00:00,299.0,6.63,294.0,9.0,12.25,47.59359,-54.27349
2022-12-30 03:14:00+00:00,303.0,8.63,302.0,10.34,12.25,47.59359,-54.27349
2022-12-30 03:24:00+00:00,306.0,5.99,301.0,10.09,12.25,47.59359,-54.27349
2022-12-30 03:34:00+00:00,310.0,5.95,307.0,8.24,12.25,47.59359,-54.27349
2022-12-30 03:44:00+00:00,303.0,5.92,300.0,8.51,12.25,47.59359,-54.27349
2022-12-30 03:54:00+00:00,299.0,5.92,302.0,8.55,12.25,47.59359,-54.27349
2022-12-30 04:04:00+00:00,299.0,5.88,299.0,8.73,12.25,47.59359,-54.27349
2022-12-30 04:14:00+00:00,297.0,5.24,300.0,8.52,12.17,47.59359,-54.27349
2022-12-30 04:24:00+00:00,290.0,5.81,286.0,8.24,12.17,47.59359,-54.27349
2022-12-30 04:34:00+00:00,311.0,4.31,301.0,6.55,12.17,47.59359,-54.27349
2022-12-30 04:44:00+00:00,305.0,6.03,300.0,7.63,12.17,47.59359,-54.27349
2022-12-30 04:54:00+00:00,311.0,5.73,306.0,7.32,12.17,47.59359,-54.27349
2022-12-30 05:04:00+00:00,289.0,5.55,290.0,6.53,12.17,47.59359,-54.27349
2022-12-30 05:14:00+00:00,315.0,5.41,328.0,7.03,12.17,47.59359,-54.27349
2022-12-30 05:24:00+00:00,317.0,5.47,331.0,6.72,12.17,47.59359,-54.27349
2022-12-30 05:34:00+00:00,315.0,7.99,313.0,9.68,12.17,47.59359,-54.27349
2022-12-30 05:44:00+00:00,313.0,7.88,313.0,9.84,12.17,47.59359,-54.27349
2022-12-30 05:54:00+00:00,319.0,8.37,310.0,9.94,12.17,47.59359,-54.27349
2022-12-30 06:04:00+00:00,317.0,7.44,317.0,10.23,12.17,47.59359,-54.27349
2022-12-30 06:14:00+00:00,309.0,8.66,309.0,10.6,12.17,47.59359,-54.27349
2022-12-30 06:24:00+00:00,318.0,6.87,308.0,8.55,12.17,47.59359,-54.27349
2022-12-30 06:34:00+00:00,325.0,7.44,320.0,9.24,12.17,47.59359,-54.27349
2022-12-30 06:44:00+00:00,319.0,9.46,319.0,11.46,12.17,47.59359,-54.27349
2022-12-30 06:54:00+00:00,321.0,8.5,321.0,10.9,12.17,47.59359,-54.27349
2022-12-30 07:04:00+00:00,330.0,7.83,330.0,9.06,12.17,47.59359,-54.27349
2022-12-30 07:14:01+00:00,329.0,8.5,322.0,10.1,12.17,47.59359,-54.27349
2022-12-30 07:24:01+00:00,330.0,8.21,330.0,9.63,12.17,47.59359,-54.27349
2022-12-30 07:34:01+00:00,332.0,8.58,325.0,10.32,12.17,47.59359,-54.27349
2022-12-30 07:44:01+00:00,335.0,8.34,324.0,10.06,12.17,47.59359,-54.27349
2022-12-30 07:54:01+00:00,355.0,6.15,322.0,8.04,12.17,47.59359,-54.27349
2022-12-30 08:04:01+00:00,356.0,5.27,0.0,6.2,12.17,47.59359,-54.27349
2022-12-30 08:14:00+00:00,321.0,5.14,306.0,6.67,12.17,47.59359,-54.27349
2022-12-30 08:24:00+00:00,320.0,6.69,322.0,7.71,12.17,47.59359,-54.27349
2022-12-30 08:34:00+00:00,316.0,7.29,316.0,8.84,12.17,47.59359,-54.27349
2022-12-30 08:44:00+00:00,311.0,7.2,318.0,8.29,12.17,47.59359,-54.27349
2022-12-30 08:54:00+00:00,305.0,7.07,307.0,8.5,12.17,47.59359,-54.27349
2022-12-30 09:04:00+00:00,305.0,7.46,307.0,8.14,12.17,47.59359,-54.27349
2022-12-30 09:14:01+00:00,312.0,7.66,312.0,9.65,12.17,47.59359,-54.27349
2022-12-30 09:24:01+00:00,308.0,7.0,302.0,8.31,12.17,47.59359,-54.27349
2022-12-30 09:34:01+00:00,312.0,7.51,309.0,8.95,12.17,47.59359,-54.27349
2022-12-30 09:44:01+00:00,316.0,7.18,313.0,9.52,12.17,47.59359,-54.27349
2022-12-30 09:54:01+00:00,319.0,8.5,314.0,9.69,12.17,47.59359,-54.27349
2022-12-30 10:04:01+00:00,326.0,9.52,325.0,11.05,12.17,47.59359,-54.27349
2022-12-30 10:14:00+00:00,326.0,9.94,324.0,11.32,12.09,47.59359,-54.27349
2022-12-30 10:24:00+00:00,321.0,8.13,324.0,9.65,12.09,47.59359,-54.27349
2022-12-30 10:34:00+00:00,326.0,8.19,331.0,9.4,12.09,47.59359,-54.27349
2022-12-30 10:44:00+00:00,324.0,9.97,325.0,11.06,12.09,47.59359,-54.27349
2022-12-30 10:54:00+00:00,325.0,9.29,322.0,10.94,12.09,47.59359,-54.27349
2022-12-30 11:04:00+00:00,334.0,8.76,332.0,9.68,12.09,47.59359,-54.27349
2022-12-30 11:14:00+00:00,324.0,8.63,321.0,9.65,12.09,47.59359,-54.27349
2022-12-30 11:24:00+00:00,337.0,7.46,333.0,8.13,12.09,47.59359,-54.27349
2022-12-30 11:34:00+00:00,334.0,7.87,331.0,9.34,12.09,47.59359,-54.27349
2022-12-30 11:44:00+00:00,328.0,5.68,316.0,7.35,12.09,47.59359,-54.27349
2022-12-30 11:54:00+00:00,340.0,6.07,344.0,7.3,12.09,47.59359,-54.27349
2022-12-30 12:04:00+00:00,355.0,4.9,355.0,5.96,12.09,47.59359,-54.27349
2022-12-30 12:14:00+00:00,349.0,3.94,327.0,5.44,13.92,47.59359,-54.27349
2022-12-30 12:24:00+00:00,354.0,4.19,356.0,4.93,13.92,47.59359,-54.27349
2022-12-30 12:34:00+00:00,359.0,3.59,357.0,4.63,13.92,47.59359,-54.27349
2022-12-30 12:44:00+00:00,2.0,4.39,1.0,5.63,13.92,47.59359,-54.27349
2022-12-30 12:54:00+00:00,352.0,5.97,356.0,7.05,13.92,47.59359,-54.27349
2022-12-30 13:04:00+00:00,340.0,5.19,314.0,6.22,13.92,47.59359,-54.27349
2022-12-30 13:14:00+00:00,356.0,4.73,331.0,6.37,13.53,47.59359,-54.27349
2022-12-30 13:24:00+00:00,333.0,4.06,302.0,6.01,13.53,47.59359,-54.27349
2022-12-30 13:34:00+00:00,354.0,3.83,350.0,4.7,13.53,47.59359,-54.27349
2022-12-30 13:44:00+00:00,304.0,2.12,287.0,3.79,13.53,47.59359,-54.27349
2022-12-30 13:54:00+00:00,298.0,3.72,289.0,6.33,13.53,47.59359,-54.27349
2022-12-30 14:04:00+00:00,312.0,3.07,285.0,5.92,13.53,47.59359,-54.27349
2022-12-30 14:14:01+00:00,319.0,2.24,312.0,4.02,13.6,47.59359,-54.27349
2022-12-30 14:24:01+00:00,318.0,2.37,317.0,4.26,13.6,47.59359,-54.27349
2022-12-30 14:34:01+00:00,305.0,2.36,288.0,4.57,13.6,47.59359,-54.27349
2022-12-30 14:44:01+00:00,350.0,1.58,340.0,1.87,13.6,47.59359,-54.27349
2022-12-30 14:54:01+00:00,331.0,0.47,325.0,0.9,13.6,47.59359,-54.27349
2022-12-30 15:04:01+00:00,342.0,1.58,350.0,2.39,13.6,47.59359,-54.27349
2022-12-30 15:14:00+00:00,337.0,1.06,349.0,1.54,14.32,47.59359,-54.27349
2022-12-30 15:24:00+00:00,18.0,0.06,24.0,0.76,14.32,47.59359,-54.27349
2022-12-30 15:34:00+00:00,211.0,0.3,205.0,0.79,14.32,47.59359,-54.27349
2022-12-30 15:44:00+00:00,349.0,0.52,342.0,0.79,14.32,47.59359,-54.27349
2022-12-30 15:54:00+00:00,272.0,0.89,269.0,4.04,14.32,47.59359,-54.27349
2022-12-30 16:04:00+00:00,343.0,1.34,345.0,1.73,14.32,47.59359,-54.27349
2022-12-30 16:14:00+00:00,270.0,0.47,235.0,0.83,14.4,47.59359,-54.27349
2022-12-30 16:24:00+00:00,188.0,0.87,202.0,1.2,14.4,47.59359,-54.27349
2022-12-30 16:34:00+00:00,180.0,1.31,180.0,1.66,14.4,47.59359,-54.27349
2022-12-30 16:44:00+00:00,161.0,1.33,156.0,1.71,14.4,47.59359,-54.27349
2022-12-30 16:54:00+00:00,185.0,0.89,187.0,1.2,14.4,47.59359,-54.27349
2022-12-30 17:04:00+00:00,172.0,0.56,178.0,1.18,14.4,47.59359,-54.27349
2022-12-30 17:14:01+00:00,102.0,0.66,104.0,1.09,13.6,47.59359,-54.27349
2022-12-30 17:24:01+00:00,130.0,0.73,123.0,1.25,13.6,47.59359,-54.27349
2022-12-30 17:34:01+00:00,135.0,0.08,151.0,0.42,13.6,47.59359,-54.27349
2022-12-30 17:44:01+00:00,175.0,1.68,173.0,2.09,13.6,47.59359,-54.27349
2022-12-30 17:54:01+00:00,204.0,0.3,206.0,0.62,13.6,47.59359,-54.27349
2022-12-30 18:04:01+00:00,192.0,1.51,195.0,1.94,13.6,47.59359,-54.27349
2022-12-30 18:14:01+00:00,185.0,1.48,187.0,1.95,14.48,47.59359,-54.27349
2022-12-30 18:24:01+00:00,184.0,1.95,183.0,2.44,14.48,47.59359,-54.27349
2022-12-30 18:34:01+00:00,185.0,1.34,195.0,2.25,14.48,47.59359,-54.27349
2022-12-30 18:44:01+00:00,177.0,1.27,170.0,1.81,14.48,47.59359,-54.27349
2022-12-30 18:54:01+00:00,241.0,2.89,247.0,4.35,14.48,47.59359,-54.27349
2022-12-30 19:04:01+00:00,172.0,1.78,176.0,2.28,14.48,47.59359,-54.27349
2022-12-30 19:14:00+00:00,187.0,1.94,193.0,2.41,13.05,47.59359,-54.27349
2022-12-30 19:24:00+00:00,199.0,2.8,196.0,3.29,13.05,47.59359,-54.27349
2022-12-30 19:34:00+00:00,213.0,2.97,224.0,4.05,13.05,47.59359,-54.27349
2022-12-30 19:44:00+00:00,197.0,2.82,200.0,3.27,13.05,47.59359,-54.27349
2022-12-30 19:54:00+00:00,203.0,3.42,206.0,4.12,13.05,47.59359,-54.27349
2022-12-30 20:04:00+00:00,211.0,4.13,222.0,4.87,13.05,47.59359,-54.27349
2022-12-30 20:14:00+00:00,216.0,3.51,219.0,4.3,12.57,47.59359,-54.27349
2022-12-30 20:24:00+00:00,215.0,4.06,212.0,4.6,12.57,47.59359,-54.27349
2022-12-30 20:34:00+00:00,201.0,3.71,204.0,4.27,12.57,47.59359,-54.27349
2022-12-30 20:44:00+00:00,224.0,3.8,224.0,4.28,12.57,47.59359,-54.27349
2022-12-30 20:54:00+00:00,239.0,4.06,238.0,4.83,12.57,47.59359,-54.27349
2022-12-30 21:04:00+00:00,232.0,3.48,232.0,3.82,12.57,47.59359,-54.27349
2022-12-30 21:14:00+00:00,249.0,4.11,246.0,4.78,12.41,47.59359,-54.27349
2022-12-30 21:24:00+00:00,258.0,4.47,266.0,4.81,12.41,47.59359,-54.27349
2022-12-30 21:34:00+00:00,254.0,4.5,250.0,5.19,12.41,47.59359,-54.27349
2022-12-30 21:44:00+00:00,254.0,3.75,253.0,4.55,12.41,47.59359,-54.27349
2022-12-30 21:54:00+00:00,270.0,4.1,280.0,4.6,12.41,47.59359,-54.27349
2022-12-30 22:04:00+00:00,260.0,4.02,266.0,4.61,12.41,47.59359,-54.27349
2022-12-30 22:14:00+00:00,255.0,4.36,256.0,4.76,12.41,47.59359,-54.27349
2022-12-30 22:24:00+00:00,248.0,4.88,248.0,5.56,12.41,47.59359,-54.27349
2022-12-30 22:34:00+00:00,240.0,3.98,231.0,4.96,12.41,47.59359,-54.27349
2022-12-30 22:44:00+00:00,234.0,4.29,226.0,5.0,12.41,47.59359,-54.27349
2022-12-30 22:54:00+00:00,242.0,4.71,244.0,5.38,12.41,47.59359,-54.27349
2022-12-30 23:04:00+00:00,232.0,4.24,224.0,4.9,12.41,47.59359,-54.27349
2022-12-30 23:14:00+00:00,252.0,3.76,245.0,4.25,12.41,47.59359,-54.27349
2022-12-30 23:24:00+00:00,228.0,5.26,227.0,5.94,12.41,47.59359,-54.27349
2022-12-30 23:34:00+00:00,239.0,5.49,239.0,5.91,12.41,47.59359,-54.27349
2022-12-30 23:44:00+00:00,237.0,5.69,240.0,6.53,12.41,47.59359,-54.27349
2022-12-30 23:54:00+00:00,228.0,4.92,228.0,5.96,12.41,47.59359,-54.27349
